Simultaneous Nadir Overpasses (SNOs) Predictions

Prediction of SNOs between LANDSAT-8 and METOP-A Satellite Orbit:

Table of predicted SNOs for the next 14.0 days since TLE Epoch: 11/20/2021
Index Date (LANDSAT-8) Time (LANDSAT-8) Lat,Lon (LANDSAT-8) SZA (LANDSAT-8 ) Date (METOP-A) Time (METOP-A) Lat,Lon (METOP-A) SZA (METOP-A ) Distance(km) Time Diff (sec)
1 11/24/2021 11:57:24 -81.28,-136.78 75.57 11/24/2021 11:56:33 -81.29,-136.76 75.59 1.07 51
2 11/24/2021 12:46:50 81.29, 30.93 104.45 11/24/2021 12:46:28 81.29, 30.95 104.44 0.45 22
3 11/24/2021 13:36:17 -81.29,-161.47 75.56 11/24/2021 13:36:45 -81.28,-161.43 75.55 1.06 28
4 11/24/2021 14:25:44 81.27, 5.86 104.41 11/24/2021 14:26:41 81.28, 5.93 104.45 2.02 57
5 11/29/2021 13:54:50 -81.30,-165.86 74.66 11/29/2021 13:54:00 -81.29,-166.02 74.70 3.00 50
6 11/29/2021 14:44:17 81.28, 1.42 105.30 11/29/2021 14:44:04 81.29, 1.38 105.30 1.45 13
7 11/29/2021 15:33:44 -81.28, 169.08 74.70 11/29/2021 15:34:15 -81.28, 169.22 74.67 2.40 31



Historial Predications of SNOs between LANDSAT-8 and METOP-A
